Weather History for Phillips, WI

Change the Weather History Date:

Saturday, May 25, 2013

  Actual Average Record
Temperature  
Mean Temperature 55 °F -  
Max Temperature 66 °F 64 °F 75 °F (1998)
Min Temperature 44 °F 41 °F 33 °F (2003)
Degree Days  
Heating Degree Days 10    
Growing Degree Days 5 (Base 50)    
Moisture  
Dew Point 41 °F    
Average Humidity 62    
Maximum Humidity 93    
Minimum Humidity 30    
Precipitation  
Precipitation 0.00 in - - ()
Sea Level Pressure  
Sea Level Pressure 30.32 in    
Wind  
Wind Speed 3 mph (SE)    
Max Wind Speed 12 mph    
Max Gust Speed 18 mph    
Visibility 10 miles    
Events      
Averages and records for this station are not official NWS values.
T = Trace of Precipitation, MM = Missing Value Source: NWS Daily Summary

Daily Weather History Graph

Daily Weather History Graph

Search for Another Location

Airport:

Trip Planner

Search our weather history database for the weather conditions in past years. The results will help you decide how hot, cold, wet, or windy it might be!

Date:

Astronomy

May. 25, 2013 Rise Set
Actual Time 5:20 AM CDT 8:37 PM CDT
Civil Twilight 4:43 AM CDT 9:13 PM CDT
Nautical Twilight 3:56 AM CDT 10:01 PM CDT
Astronomical Twilight 2:57 AM CDT 11:00 PM CDT
Moon 9:24 PM CDT (5/25) 5:48 AM CDT (5/25)
Length of Visible Light 16h 29m
Length of Day
15h 17m
Full, 100% of the Moon is Illuminated
May 25
Full
May 31
Last Quarter
Jun 8
New
Jun 16
First Quarter
Jun 23
Full

Hourly Weather History & Observations

Time (CDT) Temp. Windchill Dew Point Humidity Pressure Visibility Wind Dir Wind Speed Gust Speed Precip Events Conditions
12:15 AM 46.4 °F - 42.8 °F 87% 30.31 in 10.0 mi Calm Calm - N/A   Clear
12:35 AM 46.4 °F - 42.8 °F 87% 30.32 in 10.0 mi Calm Calm - N/A   Clear
12:55 AM 46.4 °F - 42.8 °F 87% 30.32 in 10.0 mi Calm Calm - N/A   Clear
1:15 AM 44.6 °F - 42.8 °F 93% 30.32 in 10.0 mi Calm Calm - N/A   Clear
1:35 AM 44.6 °F - 42.8 °F 93% 30.32 in 10.0 mi Calm Calm - N/A   Clear
1:55 AM 44.6 °F - 42.8 °F 93% 30.31 in 10.0 mi Calm Calm - N/A   Clear
2:15 AM 44.6 °F - 42.8 °F 93% 30.31 in 10.0 mi Calm Calm - N/A   Clear
2:35 AM 44.6 °F - 42.8 °F 93% 30.31 in 10.0 mi Calm Calm - N/A   Clear
2:55 AM 46.4 °F - 42.8 °F 87% 30.31 in 10.0 mi Calm Calm - N/A   Clear
3:15 AM 48.2 °F - 42.8 °F 82% 30.30 in 10.0 mi Calm Calm - N/A   Clear
3:35 AM 48.2 °F - 42.8 °F 82% 30.30 in 10.0 mi Calm Calm - N/A   Clear
3:55 AM 48.2 °F - 42.8 °F 82% 30.30 in 10.0 mi Calm Calm - N/A   Clear
4:15 AM 48.2 °F - 42.8 °F 82% 30.32 in 10.0 mi ESE 4.6 mph - N/A   Clear
4:35 AM 50.0 °F - 42.8 °F 76% 30.32 in 10.0 mi Calm Calm - N/A   Clear
4:55 AM 46.4 °F 45.2 °F 42.8 °F 87% 30.31 in 10.0 mi East 3.5 mph - N/A   Clear
5:15 AM 48.2 °F - 42.8 °F 82% 30.33 in 10.0 mi East 3.5 mph - N/A   Clear
5:35 AM 48.2 °F - 42.8 °F 82% 30.34 in 10.0 mi SE 3.5 mph - N/A   Clear
5:55 AM 48.2 °F - 42.8 °F 82% 30.35 in 10.0 mi ESE 3.5 mph - N/A   Scattered Clouds
6:15 AM 48.2 °F - 42.8 °F 82% 30.36 in 10.0 mi Calm Calm - N/A   Scattered Clouds
6:35 AM 50.0 °F - 42.8 °F 76% 30.37 in 10.0 mi SE 4.6 mph - N/A   Scattered Clouds
6:55 AM 50.0 °F - 42.8 °F 76% 30.37 in 10.0 mi SE 3.5 mph - N/A   Scattered Clouds
7:15 AM 51.8 °F - 42.8 °F 71% 30.37 in 10.0 mi SSE 3.5 mph - N/A   Clear
7:35 AM 51.8 °F - 42.8 °F 71% 30.36 in 10.0 mi SE 5.8 mph - N/A   Clear
7:55 AM 53.6 °F - 44.6 °F 72% 30.36 in 10.0 mi SE 3.5 mph - N/A   Clear
8:15 AM 55.4 °F - 44.6 °F 67% 30.36 in 10.0 mi ESE 6.9 mph - N/A   Clear
8:35 AM 57.2 °F - 44.6 °F 63% 30.36 in 10.0 mi SE 5.8 mph - N/A   Clear
8:55 AM 57.2 °F - 44.6 °F 63% 30.35 in 10.0 mi SE 5.8 mph - N/A   Clear
9:15 AM 57.2 °F - 44.6 °F 63% 30.34 in 10.0 mi SE 6.9 mph - N/A   Clear
9:35 AM 60.8 °F - 44.6 °F 55% 30.35 in 10.0 mi ESE 4.6 mph - N/A   Clear
9:55 AM 60.8 °F - 44.6 °F 55% 30.35 in 10.0 mi SE 10.4 mph - N/A   Scattered Clouds
10:15 AM 62.6 °F - 42.8 °F 48% 30.35 in 10.0 mi SSE 6.9 mph - N/A   Mostly Cloudy
10:35 AM 62.6 °F - 42.8 °F 48% 30.34 in 10.0 mi SSE 8.1 mph - N/A   Scattered Clouds
10:55 AM 62.6 °F - 42.8 °F 48% 30.34 in 10.0 mi SE 8.1 mph - N/A   Scattered Clouds
11:15 AM 62.6 °F - 39.2 °F 42% 30.35 in 10.0 mi SSE 11.5 mph - N/A   Scattered Clouds
11:35 AM 62.6 °F - 39.2 °F 42% 30.34 in 10.0 mi SSE 11.5 mph - N/A   Scattered Clouds
11:55 AM 64.4 °F - 37.4 °F 37% 30.34 in 10.0 mi South 11.5 mph - N/A   Scattered Clouds
12:15 PM 64.4 °F - 39.2 °F 40% 30.35 in 10.0 mi South 10.4 mph - N/A   Scattered Clouds
12:35 PM 64.4 °F - 37.4 °F 37% 30.34 in 10.0 mi SSE 10.4 mph 18.4 mph N/A   Clear
12:55 PM 64.4 °F - 37.4 °F 37% 30.34 in 10.0 mi South 10.4 mph 16.1 mph N/A   Clear
1:35 PM 66.2 °F - 37.4 °F 35% 30.34 in 10.0 mi SE 10.4 mph - N/A   Clear
1:55 PM 66.2 °F - 35.6 °F 32% 30.33 in 10.0 mi South 6.9 mph - N/A   Clear
2:15 PM 66.2 °F - 35.6 °F 32% 30.33 in 10.0 mi SSE 6.9 mph - N/A   Clear
2:35 PM 66.2 °F - 35.6 °F 32% 30.33 in 10.0 mi SSE 6.9 mph - N/A   Clear
2:55 PM 66.2 °F - 33.8 °F 30% 30.33 in 10.0 mi SSW 6.9 mph - N/A   Clear
3:15 PM 66.2 °F - 35.6 °F 32% 30.32 in 10.0 mi SE 6.9 mph - N/A   Clear
3:35 PM 66.2 °F - 35.6 °F 32% 30.32 in 10.0 mi SE 6.9 mph - N/A   Clear
3:55 PM 66.2 °F - 35.6 °F 32% 30.32 in 10.0 mi South 9.2 mph - N/A   Clear
4:15 PM 66.2 °F - 35.6 °F 32% 30.32 in 10.0 mi SSE 5.8 mph - N/A   Clear
4:35 PM 66.2 °F - 35.6 °F 32% 30.32 in 10.0 mi SSE 5.8 mph - N/A   Scattered Clouds
5:35 PM 66.2 °F - 37.4 °F 35% 30.30 in 10.0 mi ESE 4.6 mph - N/A   Scattered Clouds
5:55 PM 66.2 °F - 37.4 °F 35% 30.30 in 10.0 mi SE 4.6 mph - N/A   Mostly Cloudy
6:15 PM 64.4 °F - 37.4 °F 37% 30.30 in 10.0 mi ESE 4.6 mph - N/A   Scattered Clouds
6:35 PM 64.4 °F - 37.4 °F 37% 30.30 in 10.0 mi SSE 4.6 mph - N/A   Scattered Clouds
6:55 PM 64.4 °F - 39.2 °F 40% 30.29 in 10.0 mi Calm Calm - N/A   Scattered Clouds
7:15 PM 66.2 °F - 37.4 °F 35% 30.29 in 10.0 mi ESE 4.6 mph - N/A   Scattered Clouds
7:35 PM 64.4 °F - 37.4 °F 37% 30.29 in 10.0 mi SE 5.8 mph - N/A   Clear
7:55 PM 64.4 °F - 37.4 °F 37% 30.29 in 10.0 mi SE 5.8 mph - N/A   Clear
8:15 PM 62.6 °F - 39.2 °F 42% 30.29 in 10.0 mi SSE 3.5 mph - N/A   Clear
8:35 PM 60.8 °F - 39.2 °F 45% 30.29 in 10.0 mi Calm Calm - N/A   Clear
8:55 PM 57.2 °F - 41.0 °F 55% 30.29 in 10.0 mi Calm Calm - N/A   Clear
9:55 PM 51.8 °F - 46.4 °F 82% 30.30 in 10.0 mi Calm Calm - N/A   Clear
10:15 PM 50.0 °F - 46.4 °F 87% 30.30 in 10.0 mi Calm Calm - N/A   Clear
10:35 PM 48.2 °F - 44.6 °F 87% 30.31 in 10.0 mi Calm Calm - N/A   Clear
10:55 PM 48.2 °F - 44.6 °F 87% 30.31 in 10.0 mi Calm Calm - N/A   Clear
11:15 PM 46.4 °F - 44.6 °F 93% 30.31 in 10.0 mi Calm Calm - N/A   Clear
11:35 PM 46.4 °F - 44.6 °F 93% 30.31 in 10.0 mi Calm Calm - N/A   Clear
11:55 PM 46.4 °F - 44.6 °F 93% 30.31 in 10.0 mi Calm Calm - N/A   Clear